Flag for Spain Weather past 2 weeks in Bilbao, Spain

Now
70 °F

Broken clouds.


Feels Like: 70 °F
Forecast: 64 / 75 °F
Wind: 2 mph from North

Location: Bilbao / Sondica

Current Time: Aug 29, 2014 at 10:16:16 PM

Latest Report: Aug 29, 2014 at 9:00 PM


Visibility: N/A

Pressure: 30.15 "Hg

Humidity: 78%

Dew point: 63 °F

Location of BilbaoLocation

Historic Weather in Bilbao — Graph

°F

Bilbao temperature yesterday

Maximum temperature yesterday: 77 °F (at 3:00 PM)
Minimum temperature yesterday: 64 °F (at 9:30 PM)
Average temperature yesterday: 71 °F

Past Weeks' High & Low Weather Summary

 TemperatureHumidityPressure
High90 °F (Aug 27, 3:00 PM)100% (Aug 28, 8:30 PM)30.30 "Hg (Aug 28, 8:30 PM)
Low52 °F (Aug 17, 5:30 AM)29% (Aug 25, 1:30 PM)29.89 "Hg (Aug 26, 5:00 AM)
Average69 °F72%30.08 "Hg
* Reported Aug 14 9:00 PM — Aug 29 9:00 PM, Bilbao, Weather by CustomWeather, © 2014

Note: Actual official high and low records may vary slightly from our data, if they occured in-between our weather recording intervals... More about our weather records

Advertising

Bilbao weather history for previous 24 hours

 ConditionsComfort  
Time TempWeatherWind HumidityBarometerVisibility
9:00 PM
Aug 29
70 °FBroken clouds.2 mph78%30.15 "HgN/A
8:30 PM72 °FBroken clouds.5 mph73%30.15 "HgN/A
8:00 PM72 °FBroken clouds.5 mph73%30.15 "HgN/A
7:30 PM73 °FBroken clouds.6 mph65%30.15 "HgN/A
7:00 PM73 °FBroken clouds.7 mph65%30.15 "HgN/A
6:30 PM73 °FBroken clouds.9 mph61%30.15 "HgN/A
6:00 PM77 °FBroken clouds.8 mph54%30.15 "HgN/A
5:30 PM75 °FBroken clouds.9 mph61%30.15 "HgN/A
5:00 PM73 °FBroken clouds.8 mph65%30.15 "HgN/A
4:30 PM75 °FBroken clouds.8 mph61%30.15 "HgN/A
4:00 PM73 °FBroken clouds.8 mph65%30.15 "HgN/A
3:30 PM73 °FBroken clouds.8 mph65%30.15 "HgN/A
3:00 PM73 °FBroken clouds.7 mph65%30.15 "HgN/A
2:30 PM73 °FBroken clouds.9 mph65%30.15 "HgN/A
2:00 PM75 °FBroken clouds.7 mph57%30.15 "HgN/A
1:30 PM73 °FBroken clouds.6 mph65%30.15 "HgN/A
1:00 PM72 °FBroken clouds.7 mph69%30.18 "HgN/A
12:30 PM73 °FBroken clouds.3 mph69%30.18 "HgN/A
12:00 PM72 °FPartly sunny.No wind78%30.18 "HgN/A
11:30 AM70 °FPartly sunny.No wind83%30.18 "HgN/A
11:00 AM68 °FPartly sunny.No wind88%30.18 "HgN/A
10:30 AM66 °FPartly sunny.1 mph94%30.18 "Hg5 mi
10:00 AM66 °FPartly sunny.No wind94%30.15 "Hg5 mi
9:30 AM66 °FPartly sunny.No wind94%30.15 "Hg5 mi
9:00 AM66 °FPartly sunny.1 mph94%30.15 "Hg5 mi
8:30 AM66 °FPassing clouds.2 mph94%30.15 "Hg5 mi
8:00 AM66 °FPassing clouds.1 mph94%30.15 "Hg5 mi
7:30 AM64 °FPassing clouds.No wind100%30.12 "Hg5 mi
7:00 AM64 °FPassing clouds.No wind100%30.12 "Hg5 mi
6:30 AM64 °FPassing clouds.1 mph100%30.12 "Hg5 mi
6:00 AM66 °FPassing clouds.2 mph94%30.12 "Hg5 mi
5:30 AM66 °FPassing clouds.1 mph94%30.12 "Hg5 mi
5:00 AM66 °FPassing clouds.2 mph94%30.12 "Hg5 mi
11:30 PM
Aug 28
64 °FLight rain. Fog.5 mph100%30.15 "Hg3 mi
10:30 PM66 °FLight rain. Fog.3 mph94%30.12 "Hg3 mi
10:00 PM66 °FLight rain. Fog.5 mph94%30.12 "Hg3 mi
Weather by CustomWeather, © 2014

See weather overviewHow to use our weather pages